Regional Weather Roundup
Issued by NWS Newport/Morehead, NC

Current Version | Previous Version | Graphics & Text | Print | Product List | Glossary Off
Versions: 1 2 3 4 5 6 7 8 9 10 11 12 13 14 15 16 17 18 19 20 21 22 23 24 25 26 27 28 29 30 31 32 33 34 35 36 37 38 39 40 41 42 43 44 45 46 47 48 49 50
000 ASUS42 KMHX 290525 RWRMHX WEATHER ROUNDUP FOR EASTERN NORTH CAROLINA NATIONAL WEATHER SERVICE NEWPORT/MOREHEAD CITY NC 100 AM EDT WED JUL 29 2015 NOTE: "FAIR" INDICATES FEW OR NO CLOUDS BELOW 12,000 FEET WITH NO SIGNIFICANT WEATHER AND/OR OBSTRUCTIONS TO VISIBILITY NCZ015>017-031-032-045>047-102-103-290600- NORTH COAST CITY SKY/WX TMP DP RH WIND PRES REMARKS EDENTON CLEAR 77 70 80 SE5 30.01F ELIZABETH CITY CLEAR 76 71 85 S5 30.01F KITTY HAWK MOCLDY 77 70 79 CALM 30.01S MANTEO MOCLDY 76 71 84 SE3 30.03S $$ NCZ045>047-081-094-103-104-290600- CENTRAL COAST CITY SKY/WX TMP DP RH WIND PRES REMARKS FRISCO MOCLDY 77 69 76 E7 30.01S SWANQUARTER N/A 75 N/A N/A NE3 29.97S $$ NCZ095-097-098-100-101-290600- SOUTHERN COAST CITY SKY/WX TMP DP RH WIND PRES REMARKS BEAUFORT PTCLDY 79 71 76 E6 29.99F CEDAR ISLAND N/A 81 N/A N/A E9 30.06R JACKSONVILLE MOCLDY 78 71 79 E5 29.99F PINEY ISLAND MOCLDY N/A N/A N/A E7 30.00F WILMINGTON PTCLDY 74 71 91 CALM 29.98F $$ NCZ011>013-027>030-043-044-078>080-089-090>093-098-290600- COASTAL PLAIN CITY SKY/WX TMP DP RH WIND PRES REMARKS AHOSKIE PTCLDY 71 68 89 CALM 30.01S CLINTON PTCLDY 76 72 86 CALM 30.01S ELIZABETHTOWN PTCLDY 74 71 88 CALM 30.00S GOLDSBORO MOCLDY 76 71 84 VRB2 29.99S GREENVILLE MOCLDY 79 72 78 S6 30.03S HAVELOCK PTCLDY 76 70 82 E3 30.01F KENANSVILLE MOCLDY 72 70 93 CALM 30.01F KINSTON MOCLDY 77 71 82 CALM 30.02S NEW BERN PTCLDY 74 70 87 CALM 30.02S RICHLANDS MOCLDY 72 64 78 CALM 30.01S ROCKY MOUNT MOCLDY 77 72 84 S3 30.01S WASHINGTON PTCLDY 74 71 89 CALM 30.02S WHITEVILLE CLEAR 73 70 89 CALM 30.00R $$ AMZ130-135-150-152-154-156-158-170-250-252-270-ANZ085-086-088-633-658-670-290600- MARINE OBSERVATIONS STATION/POSITION TIME TEMP WIND PRES WAVE SWELL AIR SEA DIR/SP/G HT/PER HT/PER (UTC) (F) (DEG/KT/KT) (MB) (FT/S) (FT/S) CHESAPEAKE LIGHT 0500 80 180/ 13/ 14 1016.8 64 E VA BEACH 0450 80 81 150/ 6/ 8 1016.2 3/ 6 3/ 6 DUCK 0500 78 67 170/ 6/ 7 1015.6 2 E DUCK 0411 80 N/A 2/11 OREGON INLET 0500 79 82 120/ 4/ 6 1016.5 13E OREGON INLT 0500 81 N/A 2/11 HATTERAS CG 0500 81 83 100/ 7/ 12 1015.8 DIAMOND BUOY NOT AVBL CAPE LOOKOUT 0500 81 90/ 12/ 13 1015.3 BEAUFORT LAB 0500 80 82 80/ 4/ 5 1014.8 30 SE NEW RVR IN NOT AVBL 27 SE WRIGHTSVLE 0500 78 81 90/ 12/ 14 N/A 5 SE WRIGHTSVLE 0408 81 81 100/ 10/ 12 1015.7 225 S CAPE HAT 0450 77 81 250/ 16/ 21 1015.3 6/ 7 2/ 9 41 SE CHARLESTON 0450 83 84 80/ 8/ 8 1014.2 3/ 6 3/ 6 $$

USA.gov is the U.S. government's official web portal to all federal, state and local government web resources and services.